Location: Bodest
(46.3000°N, 22.5667°E)
Time: 10:38:00
(UTC+00:00)

Cosmos 1726 - Pass Details

Date: 16 October 2021
Orbit: 479 x 493 km, 82.5° (Epoch: 02 December)

Event Time Altitude Azimuth Distance (km) Brightness Sun altitude
Rises 16:17:57 0° 199° (SSW) 2,525 6.1 -7.1°
Reaches altitude 10° 16:20:04 10° 205° (SSW) 1,651 5.2 -7.4°
Maximum altitude 16:23:35 51° 282° (WNW) 616 3.1 -8.0°
Drops below altitude 10° 16:27:09 10° 359° (N) 1,667 4.8 -8.6°
Sets 16:29:18 0° 5° (N) 2,554 5.6 -9.0°
